Indiana, PA

7:43 AM EDT on October 15, 2019 (GMT -0400)
Indiana County-Stewart

Weather History for KIDI - August, 2019

Change the Weather History Date:

Thursday, August 8, 2019

  Actual Average Record
Temperature  
Mean Temperature 72 °F -  
Max Temperature 80 °F 81 °F 96 °F (2001)
Min Temperature 64 °F 59 °F 44 °F (1948)
Cooling Degree Days 7    
Growing Degree Days 22 (Base 50)    
Moisture  
Dew Point 66 °F    
Average Humidity 83    
Maximum Humidity 100    
Minimum Humidity 57    
Precipitation  
Precipitation 0.00 in - - ()
Sea Level Pressure  
Sea Level Pressure 29.86 in    
Wind  
Wind Speed 5 mph (West)    
Max Wind Speed 20 mph    
Max Gust Speed 31 mph    
Visibility 8 miles    
Events Fog    
Averages and records for this station are not official NWS values.
T = Trace of Precipitation, MM = Missing Value Source: NWS Daily Summary

Daily Weather History Graph

Daily Weather History Graph

Search for Another Location

Airport or City:

Astronomy

Aug. 08, 2019 Rise Set
Actual Time 6:19 AM EDT 8:23 PM EDT
Civil Twilight 5:49 AM EDT 8:53 PM EDT
Nautical Twilight 5:13 AM EDT 9:30 PM EDT
Astronomical Twilight 4:32 AM EDT 10:10 PM EDT
Moon 2:57 PM EDT (8/8) 12:41 AM EDT (8/8)
Length of Visible Light 15h 03m
Length of Day
14h 03m
First Quarter, 60% of the Moon is Illuminated
Aug 8
First Quarter
Aug 15
Full
Aug 23
Last Quarter
Aug 30
New
Sep 5
First Quarter

Hourly Weather History & Observations

Time (EDT) Temp. Heat Index Dew Point Humidity Pressure Visibility Wind Dir Wind Speed Gust Speed Precip Events Conditions
12:15 AM 66.2 °F - 64.4 °F 94% 29.88 in 10.0 mi Calm Calm - N/A   Mostly Cloudy
12:35 AM 66.2 °F - 64.4 °F 94% 29.88 in 10.0 mi Calm Calm - N/A   Partly Cloudy
12:55 AM 66.2 °F - 64.4 °F 94% 29.88 in 10.0 mi Calm Calm - N/A   Clear
1:15 AM 66.2 °F - 64.4 °F 94% 29.88 in 10.0 mi Calm Calm - N/A   Mostly Cloudy
1:35 AM 66.2 °F - 64.4 °F 94% 29.87 in 10.0 mi Calm Calm - N/A   Mostly Cloudy
1:55 AM 64.4 °F - 64.4 °F 100% 29.87 in 9.0 mi Calm Calm - N/A   Mostly Cloudy
2:15 AM 64.4 °F - 64.4 °F 100% 29.87 in 10.0 mi Calm Calm - N/A   Overcast
2:35 AM 64.4 °F - 64.4 °F 100% 29.86 in 10.0 mi Calm Calm - N/A   Mostly Cloudy
3:15 AM 64.4 °F - 64.4 °F 100% 29.87 in 9.0 mi Calm Calm - N/A   Overcast
3:35 AM 64.4 °F - 64.4 °F 100% 29.86 in 6.0 mi Calm Calm - N/A   Scattered Clouds
3:55 AM 64.4 °F - 64.4 °F 100% 29.87 in 6.0 mi Calm Calm - N/A   Scattered Clouds
4:15 AM 64.4 °F - 64.4 °F 100% 29.86 in 3.0 mi WSW 3.5 mph - N/A   Overcast
4:35 AM 66.2 °F - 66.2 °F 100% 29.86 in 3.0 mi WSW 4.6 mph - N/A   Overcast
4:55 AM 66.2 °F - 66.2 °F 100% 29.87 in 1.8 mi WSW 5.8 mph - N/A   Overcast
5:15 AM 66.2 °F - 66.2 °F 100% 29.86 in 1.0 mi WSW 4.6 mph - N/A   Overcast
5:35 AM 66.2 °F - 66.2 °F 100% 29.85 in 1.0 mi WSW 5.8 mph - N/A   Overcast
5:55 AM 66.2 °F - 66.2 °F 100% 29.86 in 0.2 mi SW 5.8 mph - N/A Fog Fog
6:15 AM 66.2 °F - 66.2 °F 100% 29.86 in 0.2 mi WSW 6.9 mph - N/A Fog Fog
6:35 AM 66.2 °F - 66.2 °F 100% 29.86 in 0.5 mi WSW 8.1 mph - N/A Fog Fog
6:55 AM 66.2 °F - 66.2 °F 100% 29.86 in 1.0 mi WSW 5.8 mph - N/A   Overcast
7:35 AM 66.2 °F - 66.2 °F 100% 29.87 in 1.2 mi WSW 6.9 mph - N/A   Overcast
7:55 AM 66.2 °F - 66.2 °F 100% 29.87 in 2.0 mi WSW 6.9 mph - N/A   Overcast
8:15 AM 66.2 °F - 66.2 °F 100% 29.87 in 2.0 mi WSW 4.6 mph - N/A   Overcast
8:35 AM 68.0 °F - 68.0 °F 100% 29.87 in 4.0 mi Variable 4.6 mph - N/A   Overcast
8:55 AM 68.0 °F - 66.2 °F 94% 29.87 in - SW 5.8 mph - N/A   Mostly Cloudy
9:35 AM 71.6 °F - 66.2 °F 83% 29.86 in 9.0 mi Variable 4.6 mph - N/A   Partly Cloudy
9:55 AM - - - N/A% 29.86 in - SW 8.1 mph - N/A   Unknown
10:15 AM 73.4 °F - 68.0 °F 83% 29.86 in 9.0 mi SSW 9.2 mph - N/A   Unknown
10:35 AM 75.2 °F - 68.0 °F 78% 29.86 in 10.0 mi SW 12.7 mph - N/A   Unknown
10:55 AM 75.2 °F - 66.2 °F 73% 29.86 in 10.0 mi West 11.5 mph - N/A   Unknown
11:15 AM 77.0 °F - 66.2 °F 69% 29.86 in 10.0 mi West 11.5 mph 18.4 mph N/A   Scattered Clouds
11:35 AM 78.8 °F - 66.2 °F 65% 29.86 in 9.0 mi West 11.5 mph 19.6 mph N/A   Scattered Clouds
11:55 AM 77.0 °F - 64.4 °F 65% 29.86 in 10.0 mi WSW 15.0 mph 21.9 mph N/A   Mostly Cloudy
12:15 PM 77.0 °F - 64.4 °F 65% 29.86 in 10.0 mi West 10.4 mph 19.6 mph N/A   Mostly Cloudy
12:35 PM 78.8 °F - 66.2 °F 65% 29.85 in 10.0 mi WSW 12.7 mph - N/A   Mostly Cloudy
12:55 PM 78.8 °F - 62.6 °F 57% 29.84 in 10.0 mi West 17.3 mph 23.0 mph N/A   Scattered Clouds
1:15 PM 78.8 °F - 62.6 °F 57% 29.83 in 10.0 mi West 19.6 mph 26.5 mph N/A   Mostly Cloudy
1:35 PM 69.8 °F - 64.4 °F 83% 29.86 in 0.5 mi NNW 9.2 mph 31.1 mph N/A   Haze
1:55 PM 69.8 °F - 68.0 °F 94% 29.84 in 6.0 mi Variable 5.8 mph - N/A   Mostly Cloudy
2:15 PM 73.4 °F - 68.0 °F 83% 29.83 in 10.0 mi SW 5.8 mph - N/A   Scattered Clouds
2:35 PM 77.0 °F - 69.8 °F 78% 29.82 in 10.0 mi Calm Calm - N/A   Partly Cloudy
2:55 PM 78.8 °F - 66.2 °F 65% 29.82 in 10.0 mi WNW 9.2 mph 23.0 mph N/A   Mostly Cloudy
3:15 PM 77.0 °F - 66.2 °F 69% 29.84 in 6.0 mi WNW 17.3 mph 24.2 mph N/A   Haze
3:35 PM 71.6 °F - 69.8 °F 94% 29.83 in 5.0 mi NW 6.9 mph - N/A   Mostly Cloudy
3:55 PM 77.0 °F - 69.8 °F 78% 29.82 in 10.0 mi NW 9.2 mph - N/A   Partly Cloudy
4:15 PM 78.8 °F - 69.8 °F 74% 29.82 in 10.0 mi Variable 6.9 mph - N/A   Partly Cloudy
4:35 PM 77.0 °F - 68.0 °F 74% 29.82 in 10.0 mi WSW 6.9 mph - N/A   Mostly Cloudy
4:55 PM 78.8 °F - 68.0 °F 69% 29.82 in 10.0 mi West 13.8 mph - N/A   Mostly Cloudy
5:15 PM 78.8 °F - 66.2 °F 65% 29.82 in 10.0 mi WNW 9.2 mph - N/A   Mostly Cloudy
5:35 PM 78.8 °F - 66.2 °F 65% 29.82 in 10.0 mi WNW 13.8 mph 20.7 mph N/A   Overcast
5:55 PM 80.6 °F 82.7 °F 66.2 °F 61% 29.82 in 10.0 mi WNW 11.5 mph 23.0 mph N/A   Mostly Cloudy
6:15 PM 77.0 °F - 66.2 °F 69% 29.83 in 10.0 mi WNW 8.1 mph 15.0 mph N/A   Partly Cloudy
6:35 PM 77.0 °F - 66.2 °F 69% 29.83 in 10.0 mi WNW 8.1 mph 13.8 mph N/A   Scattered Clouds
6:55 PM 78.8 °F - 66.2 °F 65% 29.83 in 10.0 mi WNW 8.1 mph - N/A   Partly Cloudy
7:15 PM 78.8 °F - 66.2 °F 65% 29.84 in 10.0 mi West 6.9 mph - N/A   Scattered Clouds
7:35 PM 77.0 °F - 66.2 °F 69% 29.85 in 10.0 mi WNW 5.8 mph - N/A   Mostly Cloudy
7:55 PM 77.0 °F - 66.2 °F 69% 29.85 in 10.0 mi NW 4.6 mph - N/A   Partly Cloudy
8:15 PM 75.2 °F - 64.4 °F 69% 29.86 in 10.0 mi NW 4.6 mph - N/A   Clear
8:35 PM 73.4 °F - 64.4 °F 73% 29.86 in 10.0 mi NW 5.8 mph - N/A   Scattered Clouds
8:55 PM 73.4 °F - 62.6 °F 69% 29.86 in 10.0 mi NW 5.8 mph - N/A   Partly Cloudy
9:15 PM 73.4 °F - 62.6 °F 69% 29.87 in 10.0 mi NW 3.5 mph - N/A   Scattered Clouds
9:35 PM 71.6 °F - 60.8 °F 69% 29.87 in 10.0 mi NW 5.8 mph - N/A   Mostly Cloudy
9:55 PM 69.8 °F - 60.8 °F 73% 29.88 in 10.0 mi West 3.5 mph - N/A   Overcast
10:15 PM 69.8 °F - 62.6 °F 78% 29.88 in 10.0 mi West 3.5 mph - N/A   Overcast
10:35 PM 69.8 °F - 62.6 °F 78% 29.88 in 10.0 mi Calm Calm - N/A   Mostly Cloudy
10:55 PM 68.0 °F - 64.4 °F 88% 29.88 in 10.0 mi WSW 5.8 mph - N/A   Mostly Cloudy
11:15 PM 68.0 °F - 64.4 °F 88% 29.88 in 10.0 mi WSW 5.8 mph - N/A   Scattered Clouds
11:35 PM 66.2 °F - 64.4 °F 94% 29.88 in 10.0 mi Calm Calm - N/A   Partly Cloudy
11:55 PM 66.2 °F - 64.4 °F 94% 29.87 in 10.0 mi Calm Calm - N/A   Partly Cloudy